Location: The Saddle
(36.8333°N, 80.3417°W)
Time: 08:56:06
(UTC-05:00)

S-56A Canister/Altair - Pass Details

Date: 16 December 2023
Orbit: 640 x 2488 km, 38.9° (Epoch: 25 February)

Event Time Altitude Azimuth Distance (km) Brightness Sun altitude
Rises 06:10:29 0° 213° (SSW) 5,451 11.7 -14.9°
Reaches altitude 10° 06:14:59 10° 204° (SSW) 4,152 11.2 -14.1°
Maximum altitude 06:23:39 30° 149° (SSE) 2,269 10.5 -12.4°
Drops below altitude 10° 06:29:54 10° 90° (E) 2,947 11.8 -11.3°
Sets 06:32:30 0° 80° (E) 3,684 12.1 -10.8°
